Location: Cisewo
(53.3833°N, 14.9000°E)
Time: 10:59:51
(UTC+00:00)

BEESAT 3 - Pass Details

Date: 27 September 2021
Orbit: 481 x 510 km, 64.9° (Epoch: 22 October)

Event Time Altitude Azimuth Distance (km) Brightness Sun altitude
Rises 20:12:01 0° 316° (NW) 2,616 ? -29.0°
Reaches altitude 10° 20:14:18 10° 325° (NW) 1,733 ? -29.3°
Enters shadow 20:16:07 23° 342° (NNW) 1,116 ? -29.5°
